Hourly Data Report for October 16, 2014

All times are specified in Local Standard Time (LST). Add 1 hour to adjust for Daylight Saving Time where and when it is observed.

KAMLOOPS A
BRITISH COLUMBIA

50°42'09.000" N
120°26'55.000" W
345.30 m
1163781
71887
YKA

Download Data

Hourly Data (October 2014)
Hourly Data Report for October 16, 2014
Temp Definition
°C
Dew Point Temp Definition
°C
Rel Hum Definition
%
Wind Dir Definition
10's deg

Wind Spd Definition
km/h
Visibility Definition
km
Stn Press Definition
kPa
Hmdx Definition


Wind Chill Definition


Weather Definition


TIME
00:00 Legend Double Dagger 3.8 2.8 93 36 2 64.4 97.18     LegendNANA
01:00 Legend Double Dagger 4.4 3.4 93 33 5 64.4 97.25     Clear
02:00 Legend Double Dagger 3.8 2.6 92 36 1 64.4 97.34     LegendNANA
03:00 Legend Double Dagger 2.7 1.2 90 27 3 64.4 97.41     LegendNANA
04:00 Legend Double Dagger 3.8 2.5 91 9 8 64.4 97.44     Mainly Clear
05:00 Legend Double Dagger 5.2 3.5 89 12 3 64.4 97.48     LegendNANA
06:00 Legend Double Dagger 4.9 3.6 91 2 4 64.4 97.51     LegendNANA
07:00 Legend Double Dagger 4.1 2.3 88 36 1 64.4 97.56     Mostly Cloudy
08:00 Legend Double Dagger 7.4 5.1 85 7 10 64.4 97.60     LegendNANA
09:00 Legend Double Dagger 9.2 4.8 74 10 22 64.4 97.58     LegendNANA
10:00 Legend Double Dagger 12.0 5.7 65 11 24 64.4 97.57     Mostly Cloudy
11:00 Legend Double Dagger 13.1 5.8 61 11 27 64.4 97.53     LegendNANA
12:00 Legend Double Dagger 16.3 5.7 49 10 30 64.4 97.48     LegendNANA
13:00 Legend Double Dagger 16.0 5.7 50 10 26 64.4 97.47     Mostly Cloudy
14:00 Legend Double Dagger 15.9 5.0 48 10 24 64.4 97.45     LegendNANA
15:00 Legend Double Dagger 17.2 5.0 44 10 22 64.4 97.39     LegendNANA
16:00 Legend Double Dagger 15.9 3.1 42 15 15 64.4 97.39     Mostly Cloudy
17:00 Legend Double Dagger 15.4 2.3 41 11 18 64.4 97.40     LegendNANA
18:00 Legend Double Dagger 14.2 2.8 46 8 16 64.4 97.38     LegendNANA
19:00 Legend Double Dagger 14.1 2.4 45 10 14 64.4 97.39     Mostly Cloudy
20:00 Legend Double Dagger 11.6 2.4 53 6 10 64.4 97.41     LegendNANA
21:00 Legend Double Dagger 10.1 2.5 59 5 16 64.4 97.40     LegendNANA
22:00 Legend Double Dagger 10.1 2.7 60 4 16 64.4 97.40     Mainly Clear
23:00 Legend Double Dagger 9.5 3.3 65 5 14 64.4 97.37     LegendNANA

Notes on Data Quality.

Legend

  • E = Estimated
  • M = Missing
  • NA = Not Available
  • ‡ = Partner data that is not subject to review by the National Climate Archives
Date modified: